This is the latest recevied weather packets stored in our database for station/object VANOK. If no packets are shown the sender has not sent any weather packets the latest 10 day(s).
| Time | Temp. | Humidity | Pressure | Rain* | Wind** | Luminosity | Snow |
|---|---|---|---|---|---|---|---|
| 1777327606 | 3.89° C | 60% | 1019.8 hPa | - | - | - | - |
| 1777326406 | 3.89° C | 62% | 1019.7 hPa | - | - | - | - |
| 1777325206 | 3.89° C | 64% | 1019.6 hPa | - | - | - | - |
| 1777324006 | 3.89° C | 63% | 1019.4 hPa | - | - | - | - |
| 1777322806 | 3.89° C | 61% | 1019.3 hPa | - | - | - | - |
| 1777321606 | 3.89° C | 61% | 1019.2 hPa | - | - | - | - |
| 1777320405 | 3.89° C | 62% | 1019 hPa | - | - | - | - |
| 1777319205 | 3.89° C | 63% | 1019 hPa | - | - | - | - |
| 1777318005 | 4.44° C | 61% | 1018.9 hPa | - | - | - | - |
| 1777316804 | 4.44° C | 65% | 1018.7 hPa | - | - | - | - |
| 1777315605 | 4.44° C | 63% | 1018.7 hPa | - | - | - | - |
| 1777314404 | 4.44° C | 60% | 1018.6 hPa | - | - | - | - |
| 1777313204 | 4.44° C | 60% | 1018.4 hPa | - | - | - | - |
| 1777312005 | 5° C | 58% | 1018.3 hPa | - | - | - | - |
| 1777310805 | 5° C | 56% | 1018.2 hPa | - | - | - | - |
| 1777309604 | 5° C | 56% | 1018.1 hPa | - | - | - | - |
| 1777308404 | 5.56° C | 54% | 1017.9 hPa | - | - | - | - |
| 1777307204 | 5° C | 58% | 1017.8 hPa | - | - | - | - |
| 1777306004 | 5.56° C | 55% | 1017.7 hPa | - | - | - | - |
| 1777304804 | 5.56° C | 55% | 1017.7 hPa | - | - | - | - |
| 1777303604 | 5.56° C | 56% | 1017.7 hPa | - | - | - | - |
| 1777302404 | 5.56° C | 57% | 1017.6 hPa | - | - | - | - |
| 1777301204 | 5.56° C | 57% | 1017.7 hPa | - | - | - | - |
| 1777300004 | 5.56° C | 57% | 1017.7 hPa | - | - | - | - |
| 1777298804 | 6.11° C | 56% | 1017.7 hPa | - | - | - | - |
* Rain since midnight (hover to see other rain measurements)
** Current wind speed in m/s (hover to see current wind gust speed)